| time (UTC) | temp C | wind direction | speed KPH | gust KPH | rain 1hr cm | rain 24hr cm | rain mn cm | humidity % | barometer mb |
| 20260903121723 | 20 | 341 | 4.8 | 20.9 | 0.00 | 0.00 | 0.00 | 52 | 974.0 |
| 20260903121233 | 20 | 341 | 3.2 | 14.5 | 0.00 | 0.00 | 0.00 | 52 | 974.0 |
| 20260903120808 | 20 | 341 | 1.6 | 14.5 | 0.00 | 0.00 | 0.00 | 50 | 974.0 |
| 20260903120328 | 20 | 289 | 8.0 | 8.0 | 0.00 | 0.00 | 0.00 | 50 | 974.2 |
| 20260903115916 | 20 | 289 | 11.3 | 8.0 | 0.00 | 0.00 | 0.00 | 50 | 974.1 |
| 20260903115513 | 20 | 289 | 3.2 | 8.0 | 0.00 | 0.00 | 0.00 | 50 | 974.2 |
| 20260903115048 | 20 | 159 | 3.2 | 22.5 | 0.00 | 0.00 | 0.00 | 50 | 974.2 |
| 20260903114618 | 20 | 159 | 3.2 | 4.8 | 0.00 | 0.00 | 0.00 | 50 | 974.3 |
| 20260903114158 | 20 | 159 | 3.2 | 14.5 | 0.00 | 0.00 | 0.00 | 50 | 974.5 |
| 20260903113728 | 20 | 159 | 14.5 | 20.9 | 0.00 | 0.00 | 0.00 | 50 | 974.5 |
| 20260903113256 | 20 | 159 | 3.2 | 17.7 | 0.00 | 0.00 | 0.00 | 50 | 974.4 |
| 20260903112843 | 20 | 345 | 12.9 | 20.9 | 0.00 | 0.00 | 0.00 | 50 | 974.3 |
| 20260903112423 | 20 | 216 | 6.4 | 29.0 | 0.00 | 0.00 | 0.00 | 51 | 974.5 |
| 20260903111948 | 20 | 216 | 6.4 | 25.7 | 0.00 | 0.00 | 0.00 | 51 | 974.6 |
| 20260903111538 | 20 | 216 | 3.2 | 11.3 | 0.00 | 0.00 | 0.00 | 52 | 974.4 |
| 20260903111103 | 20 | 263 | 11.3 | 20.9 | 0.00 | 0.00 | 0.00 | 52 | 974.4 |
| 20260903110623 | 20 | 149 | 6.4 | 14.5 | 0.00 | 0.00 | 0.00 | 52 | 974.7 |
| 20260903110123 | 20 | 159 | 17.7 | 14.5 | 0.00 | 0.00 | 0.00 | 53 | 974.4 |
| 20260903105656 | 20 | 203 | 9.7 | 20.9 | 0.00 | 0.00 | 0.00 | 53 | 974.6 |
| 20260903105233 | 20 | 203 | 9.7 | 20.9 | 0.00 | 0.00 | 0.00 | 53 | 974.6 |
| 20260903104823 | 19 | 203 | 1.6 | 8.0 | 0.00 | 0.00 | 0.00 | 53 | 974.8 |
| 20260903104358 | 19 | 317 | 1.6 | 14.5 | 0.00 | 0.00 | 0.00 | 53 | 974.5 |
| 20260903103923 | 19 | 136 | 8.0 | 17.7 | 0.00 | 0.00 | 0.00 | 53 | 974.7 |
| 20260903103514 | 20 | 136 | 12.9 | 17.7 | 0.00 | 0.00 | 0.00 | 53 | 974.8 |
| 20260903103102 | 20 | 114 | 17.7 | 22.5 | 0.00 | 0.00 | 0.00 | 48 | 974.6 |
| 20260903102656 | 20 | 114 | 12.9 | 17.7 | 0.00 | 0.00 | 0.00 | 48 | 974.8 |
| 20260903102213 | 20 | 321 | 20.9 | 35.4 | 0.00 | 0.00 | 0.00 | 48 | 974.9 |
| 20260903101743 | 20 | 260 | 32.2 | 14.5 | 0.00 | 0.00 | 0.00 | 48 | 974.9 |
| 20260903101316 | 20 | 353 | 19.3 | 14.5 | 0.00 | 0.00 | 0.00 | 48 | 975.1 |
| 20260903100848 | 20 | 315 | 19.3 | 14.5 | 0.00 | 0.00 | 0.00 | 48 | 975.0 |
| 20260903100413 | 20 | 315 | 14.5 | 14.5 | 0.00 | 0.00 | 0.00 | 48 | 975.0 |
| 20260903095948 | 20 | 265 | 14.5 | 22.5 | 0.00 | 0.00 | 0.00 | 48 | 975.0 |
| 20260903095513 | 20 | 203 | 14.5 | 29.0 | 0.00 | 0.00 | 0.00 | 50 | 975.1 |
| 20260903095028 | 20 | 1 | 20.9 | 29.0 | 0.00 | 0.00 | 0.00 | 50 | 974.9 |
| 20260903094553 | 20 | 238 | 17.7 | 29.0 | 0.00 | 0.00 | 0.00 | 50 | 974.8 |
| 20260903094128 | 20 | 116 | 17.7 | 40.2 | 0.00 | 0.00 | 0.00 | 48 | 974.9 |
| 20260903093708 | 20 | 325 | 11.3 | 32.2 | 0.00 | 0.00 | 0.00 | 48 | 975.1 |
| 20260903093243 | 20 | 111 | 11.3 | 22.5 | 0.00 | 0.00 | 0.00 | 48 | 975.1 |
| 20260903092756 | 20 | 136 | 14.5 | 22.5 | 0.00 | 0.00 | 0.00 | 48 | 974.8 |
| 20260903092348 | 20 | 136 | 8.0 | 20.9 | 0.00 | 0.00 | 0.00 | 48 | 975.1 |
| 20260903091902 | 20 | 326 | 1.6 | 25.7 | 0.00 | 0.00 | 0.00 | 48 | 974.8 |
| 20260903091433 | 20 | 321 | 4.8 | 14.5 | 0.00 | 0.00 | 0.00 | 49 | 974.7 |
| 20260903091013 | 20 | 333 | 6.4 | 32.2 | 0.00 | 0.00 | 0.00 | 49 | 975.1 |
| 20260903090613 | 20 | 333 | 9.7 | 32.2 | 0.00 | 0.00 | 0.00 | 48 | 975.0 |
| 20260903090118 | 20 | 135 | 1.6 | 17.7 | 0.00 | 0.00 | 0.00 | 49 | 974.9 |
| 20260903085653 | 20 | 238 | 6.4 | 8.0 | 0.00 | 0.00 | 0.00 | 51 | 974.8 |
| 20260903085223 | 20 | 289 | 1.6 | 4.8 | 0.00 | 0.00 | 0.00 | 51 | 974.9 |
| 20260903084733 | 18 | 304 | 4.8 | 20.9 | 0.00 | 0.00 | 0.00 | 51 | 974.9 |
| 20260903084248 | 18 | 284 | 16.1 | 14.5 | 0.00 | 0.00 | 0.00 | 51 | 975.0 |
| 20260903083759 | 20 | 211 | 16.1 | 14.5 | 0.00 | 0.00 | 0.00 | 51 | 975.3 |
| 20260903083333 | 20 | 211 | 8.0 | 22.5 | 0.00 | 0.00 | 0.00 | 51 | 975.0 |
| 20260903082848 | 20 | 141 | 1.6 | 8.0 | 0.00 | 0.00 | 0.00 | 51 | 975.2 |
| 20260903082428 | 18 | 102 | 6.4 | 11.3 | 0.00 | 0.00 | 0.00 | 51 | 975.1 |
| 20260903082028 | 18 | 71 | 1.6 | 4.8 | 0.00 | 0.00 | 0.00 | 51 | 975.1 |
| 20260903081603 | 18 | 71 | 1.6 | 4.8 | 0.00 | 0.00 | 0.00 | 55 | 974.9 |
| 20260903081153 | 18 | 71 | 1.6 | 4.8 | 0.00 | 0.00 | 0.00 | 55 | 974.8 |
| 20260903080728 | 18 | 342 | 1.6 | 8.0 | 0.00 | 0.00 | 0.00 | 55 | 974.8 |
| 20260903080253 | 18 | 100 | 0.0 | 8.0 | 0.00 | 0.00 | 0.00 | 55 | 974.8 |
| 20260903075808 | 18 | 140 | 0.0 | 8.0 | 0.00 | 0.00 | 0.00 | 55 | 974.7 |
| 20260903075318 | 18 | 108 | 9.7 | 0.0 | 0.00 | 0.00 | 0.00 | 59 | 974.7 |
| 20260903074848 | 17 | 108 | 8.0 | 14.5 | 0.00 | 0.00 | 0.00 | 59 | 974.7 |
| 20260903074413 | 17 | 114 | 3.2 | 14.5 | 0.00 | 0.00 | 0.00 | 59 | 974.6 |
| 20260903073958 | 17 | 99 | 6.4 | 8.0 | 0.00 | 0.00 | 0.00 | 59 | 974.8 |
| 20260903073548 | 18 | 99 | 3.2 | 14.5 | 0.00 | 0.00 | 0.00 | 59 | 974.7 |
| 20260903073115 | 18 | 119 | 3.2 | 11.3 | 0.00 | 0.00 | 0.00 | 59 | 975.0 |
| 20260903072658 | 18 | 119 | 3.2 | 4.8 | 0.00 | 0.00 | 0.00 | 59 | 974.8 |
| 20260903072228 | 18 | 119 | 1.6 | 4.8 | 0.00 | 0.00 | 0.00 | 64 | 975.2 |
| 20260903071745 | 18 | 106 | 1.6 | 8.0 | 0.00 | 0.00 | 0.00 | 64 | 975.0 |
| 20260903071328 | 17 | 113 | 1.6 | 8.0 | 0.00 | 0.00 | 0.00 | 64 | 975.1 |
| 20260903070835 | 17 | 113 | 3.2 | 8.0 | 0.00 | 0.00 | 0.00 | 64 | 975.2 |
| 20260903070358 | 17 | 97 | 3.2 | 1.6 | 0.00 | 0.00 | 0.00 | 64 | 975.1 |
| 20260903065908 | 17 | 97 | 1.6 | 0.0 | 0.00 | 0.00 | 0.00 | 64 | 975.0 |
| 20260903065438 | 17 | 19 | 1.6 | 0.0 | 0.00 | 0.00 | 0.00 | 64 | 975.2 |
| 20260903065033 | 18 | 19 | 0.0 | 0.0 | 0.00 | 0.00 | 0.00 | 64 | 975.3 |
| 20260903064613 | 18 | 19 | 1.6 | 0.0 | 0.00 | 0.00 | 0.00 | 63 | 975.0 |
| 20260903064128 | 18 | 19 | 1.6 | 0.0 | 0.00 | 0.00 | 0.00 | 63 | 975.3 |
| 20260903063703 | 16 | 19 | 1.6 | 0.0 | 0.00 | 0.00 | 0.00 | 66 | 975.2 |
| 20260903063225 | 16 | 19 | 1.6 | 0.0 | 0.00 | 0.00 | 0.00 | 66 | 975.2 |
| 20260903062758 | 16 | 19 | 0.0 | 0.0 | 0.00 | 0.00 | 0.00 | 77 | 975.2 |
| 20260903062343 | 15 | 19 | 0.0 | 0.0 | 0.00 | 0.00 | 0.00 | 77 | 975.0 |
| 20260903061903 | 15 | 324 | 1.6 | 0.0 | 0.00 | 0.00 | 0.00 | 77 | 975.4 |
| 20260903061415 | 12 | 324 | 0.0 | 0.0 | 0.00 | 0.00 | 0.00 | 77 | 975.5 |
| 20260903060923 | 12 | 324 | 0.0 | 0.0 | 0.00 | 0.00 | 0.00 | 77 | 975.4 |
| 20260903060455 | 12 | 324 | 0.0 | 1.6 | 0.00 | 0.00 | 0.00 | 77 | 975.3 |
| 20260903060048 | 12 | 324 | 0.0 | 0.0 | 0.00 | 0.00 | 0.00 | 77 | 975.4 |
| 20260903055603 | 12 | 322 | 0.0 | 0.0 | 0.00 | 0.00 | 0.00 | 88 | 975.4 |
| 20260903055133 | 12 | 322 | 0.0 | 0.0 | 0.00 | 0.00 | 0.00 | 88 | 975.5 |
| 20260903054708 | 12 | 322 | 0.0 | 0.0 | 0.00 | 0.00 | 0.00 | 88 | 975.2 |
| 20260903054255 | 11 | 322 | 0.0 | 0.0 | 0.00 | 0.00 | 0.00 | 88 | 975.3 |
| 20260903053843 | 11 | 322 | 0.0 | 0.0 | 0.00 | 0.00 | 0.00 | 88 | 975.1 |
| 20260903053418 | 11 | 322 | 0.0 | 0.0 | 0.00 | 0.00 | 0.00 | 88 | 975.1 |
| 20260903053013 | 11 | 322 | 0.0 | 0.0 | 0.00 | 0.00 | 0.00 | 88 | 974.8 |
| 20260903052548 | 11 | 322 | 0.0 | 0.0 | 0.00 | 0.00 | 0.00 | 88 | 974.7 |
| 20260903052113 | 11 | 322 | 0.0 | 0.0 | 0.00 | 0.00 | 0.00 | 88 | 974.8 |
| 20260903051653 | 11 | 322 | 0.0 | 0.0 | 0.00 | 0.00 | 0.00 | 88 | 974.8 |
| 20260903051203 | 11 | 322 | 0.0 | 0.0 | 0.00 | 0.00 | 0.00 | 88 | 974.6 |
| 20260903050743 | 11 | 322 | 0.0 | 0.0 | 0.00 | 0.00 | 0.00 | 87 | 974.7 |
| 20260903050333 | 11 | 322 | 0.0 | 0.0 | 0.00 | 0.00 | 0.00 | 87 | 974.8 |
| 20260903045913 | 11 | 322 | 1.6 | 0.0 | 0.00 | 0.00 | 0.00 | 87 | 974.8 |
| 20260903045458 | 11 | 322 | 0.0 | 0.0 | 0.00 | 0.00 | 0.00 | 87 | 974.6 |
| 20260903045043 | 11 | 322 | 0.0 | 0.0 | 0.00 | 0.00 | 0.00 | 87 | 974.8 |
| 20260903044618 | 11 | 322 | 0.0 | 0.0 | 0.00 | 0.00 | 0.00 | 86 | 975.1 |
| 20260903044118 | 12 | 322 | 0.0 | 0.0 | 0.00 | 0.00 | 0.00 | 86 | 974.7 |
| 20260903043638 | 11 | 322 | 0.0 | 0.0 | 0.00 | 0.00 | 0.00 | 86 | 974.6 |
| 20260903043203 | 11 | 322 | 0.0 | 1.6 | 0.00 | 0.00 | 0.00 | 88 | 974.5 |
| 20260903042728 | 11 | 322 | 3.2 | 1.6 | 0.00 | 0.00 | 0.00 | 88 | 974.8 |
| 20260903042238 | 11 | 322 | 0.0 | 1.6 | 0.00 | 0.00 | 0.00 | 88 | 974.7 |
| 20260903041823 | 11 | 322 | 0.0 | 1.6 | 0.00 | 0.00 | 0.00 | 88 | 974.7 |
| 20260903041333 | 11 | 322 | 0.0 | 1.6 | 0.00 | 0.00 | 0.00 | 88 | 974.8 |
| 20260903040908 | 11 | 322 | 0.0 | 1.6 | 0.00 | 0.00 | 0.00 | 88 | 975.0 |
| 20260903040448 | 12 | 322 | 0.0 | 1.6 | 0.00 | 0.00 | 0.00 | 88 | 974.5 |
| 20260903040038 | 11 | 322 | 0.0 | 1.6 | 0.00 | 0.00 | 0.00 | 88 | 974.6 |
| 20260903035623 | 11 | 327 | 1.6 | 1.6 | 0.00 | 0.00 | 0.00 | 88 | 974.9 |
| 20260903035148 | 11 | 327 | 0.0 | 1.6 | 0.00 | 0.00 | 0.00 | 88 | 974.8 |
| 20260903034708 | 12 | 327 | 1.6 | 1.6 | 0.00 | 0.00 | 0.00 | 88 | 974.7 |
| 20260903034253 | 12 | 327 | 1.6 | 1.6 | 0.00 | 0.00 | 0.00 | 88 | 974.9 |
| 20260903033833 | 12 | 327 | 1.6 | 0.0 | 0.00 | 0.00 | 0.00 | 88 | 974.9 |
| 20260903033358 | 12 | 327 | 1.6 | 0.0 | 0.00 | 0.00 | 0.00 | 88 | 974.6 |
| 20260903032918 | 12 | 327 | 0.0 | 0.0 | 0.00 | 0.00 | 0.00 | 75 | 974.8 |
| 20260903032435 | 12 | 327 | 0.0 | 0.0 | 0.00 | 0.00 | 0.00 | 75 | 974.8 |
| 20260903032018 | 12 | 327 | 0.0 | 0.0 | 0.00 | 0.00 | 0.00 | 75 | 974.8 |
| 20260903031555 | 12 | 327 | 0.0 | 0.0 | 0.00 | 0.00 | 0.00 | 75 | 974.8 |
| 20260903031118 | 12 | 327 | 0.0 | 0.0 | 0.00 | 0.00 | 0.00 | 75 | 974.7 |
| 20260903030643 | 12 | 327 | 0.0 | 0.0 | 0.00 | 0.00 | 0.00 | 75 | 974.8 |
| 20260903030203 | 12 | 327 | 0.0 | 0.0 | 0.00 | 0.00 | 0.00 | 75 | 974.8 |
| 20260903025733 | 11 | 327 | 0.0 | 0.0 | 0.00 | 0.00 | 0.00 | 75 | 974.8 |
| 20260903025308 | 11 | 327 | 0.0 | 0.0 | 0.00 | 0.00 | 0.00 | 75 | 974.8 |
| 20260903024833 | 11 | 327 | 0.0 | 0.0 | 0.00 | 0.00 | 0.00 | 75 | 974.9 |
| 20260903024428 | 11 | 327 | 0.0 | 0.0 | 0.00 | 0.00 | 0.00 | 75 | 974.7 |
| 20260903023955 | 11 | 327 | 0.0 | 0.0 | 0.00 | 0.00 | 0.00 | 75 | 974.8 |
| 20260903023535 | 11 | 327 | 1.6 | 0.0 | 0.00 | 0.00 | 0.00 | 75 | 974.7 |
| 20260903023058 | 11 | 327 | 0.0 | 0.0 | 0.00 | 0.00 | 0.00 | 75 | 974.7 |
| 20260903022621 | 11 | 327 | 0.0 | 0.0 | 0.00 | 0.00 | 0.00 | 75 | 974.9 |
| 20260903022143 | 11 | 327 | 1.6 | 0.0 | 0.00 | 0.00 | 0.00 | 75 | 974.8 |
| 20260903021653 | 12 | 327 | 0.0 | 0.0 | 0.00 | 0.00 | 0.00 | 75 | 974.5 |
| 20260903021233 | 12 | 327 | 0.0 | 0.0 | 0.00 | 0.00 | 0.00 | 75 | 974.6 |
| 20260903020743 | 12 | 327 | 0.0 | 0.0 | 0.00 | 0.00 | 0.00 | 75 | 974.8 |
| 20260903020253 | 12 | 327 | 0.0 | 1.6 | 0.00 | 0.00 | 0.00 | 75 | 974.7 |
| 20260903015843 | 12 | 327 | 1.6 | 0.0 | 0.00 | 0.00 | 0.00 | 75 | 974.7 |
| 20260903015423 | 12 | 327 | 1.6 | 0.0 | 0.00 | 0.00 | 0.00 | 75 | 974.7 |
| 20260903015003 | 12 | 327 | 0.0 | 0.0 | 0.00 | 0.00 | 0.00 | 75 | 974.7 |
| 20260903014535 | 12 | 327 | 0.0 | 0.0 | 0.00 | 0.00 | 0.00 | 75 | 974.7 |
| 20260903014113 | 13 | 327 | 0.0 | 0.0 | 0.00 | 0.00 | 0.00 | 75 | 974.6 |
| 20260903013708 | 13 | 327 | 0.0 | 0.0 | 0.00 | 0.00 | 0.00 | 75 | 974.7 |
| 20260903013238 | 13 | 327 | 0.0 | 0.0 | 0.00 | 0.00 | 0.00 | 75 | 974.7 |
| 20260903012803 | 13 | 327 | 0.0 | 0.0 | 0.00 | 0.00 | 0.00 | 75 | 974.9 |
| 20260903012333 | 13 | 327 | 0.0 | 1.6 | 0.00 | 0.00 | 0.00 | 75 | 974.6 |
| 20260903011848 | 13 | 327 | 0.0 | 1.6 | 0.00 | 0.00 | 0.00 | 75 | 974.7 |
| 20260903011413 | 13 | 327 | 0.0 | 1.6 | 0.00 | 0.00 | 0.00 | 75 | 974.7 |
| 20260903010948 | 13 | 327 | 0.0 | 1.6 | 0.00 | 0.00 | 0.00 | 75 | 974.6 |
| 20260903010513 | 13 | 327 | 1.6 | 1.6 | 0.00 | 0.00 | 0.00 | 75 | 974.8 |
| 20260903010033 | 13 | 327 | 1.6 | 1.6 | 0.00 | 0.00 | 0.00 | 75 | 974.6 |
| 20260903005603 | 13 | 302 | 0.0 | 1.6 | 0.00 | 0.00 | 0.00 | 75 | 974.7 |
| 20260903005133 | 13 | 302 | 0.0 | 0.0 | 0.00 | 0.00 | 0.00 | 75 | 974.6 |
| 20260903004643 | 13 | 302 | 0.0 | 1.6 | 0.00 | 0.00 | 0.00 | 75 | 974.7 |
| 20260903004158 | 14 | 302 | 0.0 | 1.6 | 0.00 | 0.00 | 0.00 | 75 | 974.6 |
| 20260903003742 | 14 | 302 | 0.0 | 1.6 | 0.00 | 0.00 | 0.00 | 75 | 974.6 |
| 20260903003308 | 15 | 302 | 0.0 | 1.6 | 0.00 | 0.00 | 0.00 | 75 | 974.6 |
| 20260903002833 | 15 | 302 | 0.0 | 1.6 | 0.00 | 0.00 | 0.00 | 75 | 974.6 |
| 20260903002413 | 15 | 302 | 0.0 | 0.0 | 0.00 | 0.00 | 0.00 | 75 | 974.8 |
| 20260903001955 | 15 | 302 | 0.0 | 0.0 | 0.00 | 0.00 | 0.00 | 75 | 974.5 |
| 20260903001538 | 15 | 302 | 1.6 | 1.6 | 0.00 | 0.00 | 0.00 | 75 | 974.8 |
| 20260903001135 | 15 | 302 | 0.0 | 0.0 | 0.00 | 0.00 | 0.00 | 75 | 974.5 |
| 20260903000713 | 15 | 302 | 0.0 | 0.0 | 0.00 | 0.00 | 0.00 | 75 | 974.7 |
| 20260903000233 | 15 | 302 | 0.0 | 0.0 | 0.00 | 0.00 | 0.00 | 76 | 974.6 |
| 20260902235808 | 15 | 302 | 0.0 | 0.0 | 0.00 | 0.00 | 0.00 | 76 | 974.7 |
| 20260902235328 | 15 | 302 | 0.0 | 1.6 | 0.00 | 0.00 | 0.00 | 76 | 974.8 |
| 20260902234858 | 15 | 302 | 0.0 | 0.0 | 0.00 | 0.00 | 0.00 | 76 | 974.7 |
| 20260902234444 | 15 | 302 | 0.0 | 0.0 | 0.00 | 0.00 | 0.00 | 76 | 974.5 |
| 20260902233953 | 15 | 302 | 0.0 | 0.0 | 0.00 | 0.00 | 0.00 | 76 | 974.7 |
| 20260902233533 | 15 | 302 | 0.0 | 0.0 | 0.00 | 0.00 | 0.00 | 76 | 974.7 |
| 20260902233053 | 15 | 302 | 0.0 | 0.0 | 0.00 | 0.00 | 0.00 | 76 | 974.5 |
| 20260902232638 | 15 | 302 | 0.0 | 0.0 | 0.00 | 0.00 | 0.00 | 76 | 974.5 |
| 20260902232153 | 15 | 302 | 0.0 | 0.0 | 0.00 | 0.00 | 0.00 | 76 | 974.6 |
| 20260902231723 | 15 | 302 | 0.0 | 0.0 | 0.00 | 0.00 | 0.00 | 76 | 974.7 |
| 20260902231235 | 15 | 302 | 0.0 | 0.0 | 0.00 | 0.00 | 0.00 | 75 | 974.7 |
| 20260902230808 | 15 | 302 | 0.0 | 0.0 | 0.00 | 0.00 | 0.00 | 75 | 974.6 |
| 20260902230318 | 15 | 302 | 0.0 | 0.0 | 0.00 | 0.00 | 0.00 | 75 | 974.7 |
| 20260902225835 | 15 | 302 | 0.0 | 0.0 | 0.00 | 0.00 | 0.00 | 75 | 974.6 |
| 20260902225408 | 15 | 302 | 0.0 | 0.0 | 0.00 | 0.00 | 0.00 | 75 | 974.7 |
| 20260902224923 | 15 | 302 | 0.0 | 0.0 | 0.00 | 0.00 | 0.00 | 75 | 974.7 |
| 20260902224513 | 15 | 302 | 0.0 | 0.0 | 0.00 | 0.00 | 0.00 | 74 | 974.6 |
| 20260902224055 | 15 | 302 | 1.6 | 0.0 | 0.00 | 0.00 | 0.00 | 74 | 974.6 |
| 20260902223603 | 15 | 302 | 1.6 | 0.0 | 0.00 | 0.00 | 0.00 | 74 | 974.5 |
| 20260902223123 | 15 | 302 | 0.0 | 0.0 | 0.00 | 0.00 | 0.00 | 74 | 974.5 |
| 20260902222647 | 15 | 302 | 1.6 | 0.0 | 0.00 | 0.00 | 0.00 | 74 | 974.7 |
| 20260902222226 | 15 | 314 | 0.0 | 0.0 | 0.00 | 0.00 | 0.00 | 74 | 974.7 |
| 20260902221806 | 15 | 314 | 0.0 | 0.0 | 0.00 | 0.00 | 0.00 | 74 | 974.5 |
| 20260902221328 | 15 | 314 | 0.0 | 1.6 | 0.00 | 0.00 | 0.00 | 74 | 974.8 |
| 20260902220838 | 15 | 308 | 0.0 | 0.0 | 0.00 | 0.00 | 0.00 | 74 | 974.6 |
| 20260902220418 | 15 | 308 | 0.0 | 0.0 | 0.00 | 0.00 | 0.00 | 74 | 974.5 |
| 20260902220003 | 15 | 303 | 0.0 | 4.8 | 0.00 | 0.00 | 0.00 | 74 | 974.4 |
| 20260902215503 | 15 | 313 | 0.0 | 1.6 | 0.00 | 0.00 | 0.00 | 74 | 974.6 |
| 20260902215038 | 15 | 313 | 0.0 | 4.8 | 0.00 | 0.00 | 0.00 | 74 | 974.5 |
| 20260902214548 | 15 | 313 | 1.6 | 4.8 | 0.00 | 0.00 | 0.00 | 74 | 974.6 |
| 20260902214108 | 15 | 306 | 3.2 | 4.8 | 0.00 | 0.00 | 0.00 | 74 | 974.6 |
| 20260902213615 | 15 | 317 | 1.6 | 4.8 | 0.00 | 0.00 | 0.00 | 74 | 974.6 |
| 20260902213143 | 15 | 317 | 3.2 | 0.0 | 0.00 | 0.00 | 0.00 | 74 | 974.7 |
| 20260902212733 | 15 | 317 | 0.0 | 0.0 | 0.00 | 0.00 | 0.00 | 74 | 974.5 |
| 20260902212313 | 15 | 317 | 1.6 | 1.6 | 0.00 | 0.00 | 0.00 | 74 | 974.6 |
| 20260902211843 | 15 | 317 | 1.6 | 0.0 | 0.00 | 0.00 | 0.00 | 74 | 974.6 |
| 20260902211413 | 15 | 317 | 1.6 | 0.0 | 0.00 | 0.00 | 0.00 | 68 | 974.5 |
| 20260902210948 | 15 | 317 | 1.6 | 0.0 | 0.00 | 0.00 | 0.00 | 68 | 974.6 |
| 20260902210528 | 15 | 317 | 1.6 | 4.8 | 0.00 | 0.00 | 0.00 | 68 | 974.6 |
| 20260902210058 | 15 | 317 | 3.2 | 4.8 | 0.00 | 0.00 | 0.00 | 68 | 974.5 |
| 20260902205633 | 15 | 317 | 1.6 | 4.8 | 0.00 | 0.00 | 0.00 | 68 | 974.2 |
| 20260902205213 | 15 | 317 | 1.6 | 4.8 | 0.00 | 0.00 | 0.00 | 68 | 974.2 |
| 20260902204803 | 15 | 287 | 1.6 | 4.8 | 0.00 | 0.00 | 0.00 | 68 | 974.3 |
| 20260902204328 | 15 | 287 | 3.2 | 1.6 | 0.00 | 0.00 | 0.00 | 68 | 974.4 |
| 20260902203918 | 15 | 287 | 3.2 | 0.0 | 0.00 | 0.00 | 0.00 | 68 | 974.4 |
| 20260902203448 | 15 | 287 | 0.0 | 0.0 | 0.00 | 0.00 | 0.00 | 68 | 974.5 |
| 20260902203013 | 15 | 287 | 0.0 | 0.0 | 0.00 | 0.00 | 0.00 | 68 | 974.2 |
| 20260902202543 | 16 | 287 | 0.0 | 1.6 | 0.00 | 0.00 | 0.00 | 68 | 974.3 |
| 20260902202103 | 16 | 287 | 3.2 | 4.8 | 0.00 | 0.00 | 0.00 | 68 | 974.2 |
| 20260902201645 | 16 | 287 | 0.0 | 4.8 | 0.00 | 0.00 | 0.00 | 68 | 974.3 |
| 20260902201228 | 16 | 329 | 3.2 | 1.6 | 0.00 | 0.00 | 0.00 | 68 | 974.3 |
| 20260902200753 | 16 | 329 | 1.6 | 0.0 | 0.00 | 0.00 | 0.00 | 68 | 974.2 |
| 20260902200258 | 16 | 329 | 1.6 | 0.0 | 0.00 | 0.00 | 0.00 | 68 | 974.5 |
| 20260902195828 | 17 | 329 | 1.6 | 1.6 | 0.00 | 0.00 | 0.00 | 63 | 974.2 |
| 20260902195408 | 17 | 329 | 0.0 | 1.6 | 0.00 | 0.00 | 0.00 | 63 | 974.1 |
| 20260902194928 | 20 | 329 | 0.0 | 1.6 | 0.00 | 0.00 | 0.00 | 63 | 974.2 |
| 20260902194513 | 20 | 329 | 3.2 | 1.6 | 0.00 | 0.00 | 0.00 | 63 | 974.3 |
| 20260902194058 | 20 | 329 | 3.2 | 1.6 | 0.00 | 0.00 | 0.00 | 63 | 974.1 |
| 20260902193623 | 20 | 324 | 3.2 | 1.6 | 0.00 | 0.00 | 0.00 | 63 | 974.3 |
| 20260902193158 | 20 | 324 | 1.6 | 1.6 | 0.00 | 0.00 | 0.00 | 63 | 974.3 |
| 20260902192708 | 20 | 324 | 1.6 | 4.8 | 0.00 | 0.00 | 0.00 | 63 | 974.3 |
| 20260902192253 | 20 | 324 | 1.6 | 1.6 | 0.00 | 0.00 | 0.00 | 63 | 974.3 |
| 20260902191808 | 20 | 324 | 3.2 | 1.6 | 0.00 | 0.00 | 0.00 | 63 | 974.3 |
| 20260902191353 | 20 | 324 | 3.2 | 1.6 | 0.00 | 0.00 | 0.00 | 63 | 974.2 |
| 20260902190913 | 20 | 324 | 1.6 | 1.6 | 0.00 | 0.00 | 0.00 | 61 | 974.2 |
| 20260902190453 | 20 | 324 | 1.6 | 1.6 | 0.00 | 0.00 | 0.00 | 61 | 974.1 |
| 20260902190033 | 20 | 324 | 3.2 | 4.8 | 0.00 | 0.00 | 0.00 | 61 | 974.1 |
| 20260902185555 | 20 | 324 | 3.2 | 4.8 | 0.00 | 0.00 | 0.00 | 57 | 973.9 |
| 20260902185138 | 20 | 331 | 3.2 | 4.8 | 0.00 | 0.00 | 0.00 | 57 | 973.9 |
| 20260902184655 | 20 | 331 | 4.8 | 8.0 | 0.00 | 0.00 | 0.00 | 57 | 974.0 |
| 20260902184218 | 20 | 331 | 4.8 | 4.8 | 0.00 | 0.00 | 0.00 | 57 | 974.1 |
| 20260902183803 | 20 | 304 | 4.8 | 11.3 | 0.00 | 0.00 | 0.00 | 57 | 973.9 |
| 20260902183355 | 20 | 346 | 4.8 | 8.0 | 0.00 | 0.00 | 0.00 | 57 | 973.7 |
| 20260902182913 | 20 | 346 | 6.4 | 14.5 | 0.00 | 0.00 | 0.00 | 57 | 973.6 |
| 20260902182453 | 20 | 346 | 3.2 | 8.0 | 0.00 | 0.00 | 0.00 | 57 | 973.7 |
| 20260902182018 | 20 | 346 | 3.2 | 4.8 | 0.00 | 0.00 | 0.00 | 57 | 973.5 |
| 20260902181543 | 20 | 346 | 3.2 | 4.8 | 0.00 | 0.00 | 0.00 | 57 | 973.6 |
| 20260902181123 | 20 | 346 | 3.2 | 4.8 | 0.00 | 0.00 | 0.00 | 57 | 973.5 |
| 20260902180643 | 20 | 346 | 3.2 | 8.0 | 0.00 | 0.00 | 0.00 | 57 | 973.5 |
| 20260902180215 | 20 | 296 | 3.2 | 8.0 | 0.00 | 0.00 | 0.00 | 57 | 973.4 |
| 20260902175743 | 20 | 296 | 3.2 | 4.8 | 0.00 | 0.00 | 0.00 | 57 | 973.4 |
| 20260902175308 | 20 | 356 | 4.8 | 8.0 | 0.00 | 0.00 | 0.00 | 55 | 973.4 |
| 20260902174843 | 20 | 356 | 8.0 | 11.3 | 0.00 | 0.00 | 0.00 | 55 | 973.4 |
| 20260902174353 | 20 | 356 | 6.4 | 11.3 | 0.00 | 0.00 | 0.00 | 55 | 973.4 |
| 20260902173913 | 21 | 356 | 9.7 | 11.3 | 0.00 | 0.00 | 0.00 | 55 | 973.4 |
| 20260902173453 | 21 | 356 | 14.5 | 11.3 | 0.00 | 0.00 | 0.00 | 55 | 973.3 |
| 20260902172958 | 21 | 337 | 14.5 | 14.5 | 0.00 | 0.00 | 0.00 | 55 | 973.2 |
| 20260902172538 | 21 | 337 | 8.0 | 22.5 | 0.00 | 0.00 | 0.00 | 55 | 973.4 |
| 20260902172115 | 21 | 346 | 6.4 | 14.5 | 0.00 | 0.00 | 0.00 | 55 | 973.1 |
| 20260902171623 | 21 | 355 | 6.4 | 4.8 | 0.00 | 0.00 | 0.00 | 50 | 973.3 |
| 20260902171135 | 22 | 355 | 3.2 | 4.8 | 0.00 | 0.00 | 0.00 | 50 | 973.2 |
| 20260902170728 | 22 | 355 | 9.7 | 11.3 | 0.00 | 0.00 | 0.00 | 50 | 973.4 |
| 20260902170243 | 22 | 350 | 9.7 | 11.3 | 0.00 | 0.00 | 0.00 | 50 | 973.2 |
| 20260902165808 | 22 | 350 | 9.7 | 8.0 | 0.00 | 0.00 | 0.00 | 50 | 973.4 |
| 20260902165338 | 22 | 350 | 9.7 | 14.5 | 0.00 | 0.00 | 0.00 | 50 | 973.4 |
| 20260902164933 | 22 | 311 | 9.7 | 14.5 | 0.00 | 0.00 | 0.00 | 50 | 973.4 |
| 20260902164500 | 22 | 358 | 11.3 | 14.5 | 0.00 | 0.00 | 0.00 | 50 | 973.3 |
| 20260902164053 | 22 | 357 | 11.3 | 14.5 | 0.00 | 0.00 | 0.00 | 50 | 973.3 |
| 20260902163648 | 22 | 357 | 9.7 | 8.0 | 0.00 | 0.00 | 0.00 | 50 | 973.0 |
| 20260902163223 | 22 | 354 | 1.6 | 8.0 | 0.00 | 0.00 | 0.00 | 50 | 973.0 |
| 20260902162748 | 21 | 341 | 1.6 | 8.0 | 0.00 | 0.00 | 0.00 | 50 | 973.1 |
| 20260902162323 | 21 | 342 | 8.0 | 8.0 | 0.00 | 0.00 | 0.00 | 50 | 973.2 |
| 20260902161828 | 22 | 346 | 8.0 | 11.3 | 0.00 | 0.00 | 0.00 | 50 | 973.1 |
| 20260902161418 | 22 | 346 | 4.8 | 8.0 | 0.00 | 0.00 | 0.00 | 50 | 973.2 |
| 20260902161013 | 22 | 346 | 9.7 | 20.9 | 0.00 | 0.00 | 0.00 | 50 | 973.1 |
| 20260902160518 | 22 | 346 | 9.7 | 14.5 | 0.00 | 0.00 | 0.00 | 50 | 973.3 |
| 20260902160053 | 22 | 346 | 8.0 | 17.7 | 0.00 | 0.00 | 0.00 | 50 | 973.5 |
| 20260902155633 | 22 | 356 | 3.2 | 14.5 | 0.00 | 0.00 | 0.00 | 50 | 973.2 |
| 20260902155153 | 22 | 356 | 3.2 | 11.3 | 0.00 | 0.00 | 0.00 | 50 | 973.2 |
| 20260902154738 | 22 | 355 | 6.4 | 11.3 | 0.00 | 0.00 | 0.00 | 50 | 973.1 |
| 20260902154313 | 22 | 268 | 8.0 | 8.0 | 0.00 | 0.00 | 0.00 | 50 | 973.2 |
| 20260902153815 | 22 | 288 | 8.0 | 11.3 | 0.00 | 0.00 | 0.00 | 50 | 973.4 |
| 20260902153413 | 22 | 288 | 8.0 | 11.3 | 0.00 | 0.00 | 0.00 | 50 | 973.2 |
| 20260902152953 | 22 | 288 | 8.0 | 8.0 | 0.00 | 0.00 | 0.00 | 50 | 973.2 |
| 20260902152515 | 22 | 264 | 8.0 | 11.3 | 0.00 | 0.00 | 0.00 | 50 | 973.3 |
| 20260902152103 | 22 | 264 | 8.0 | 4.8 | 0.00 | 0.00 | 0.00 | 45 | 973.2 |
| 20260902151633 | 22 | 269 | 6.4 | 11.3 | 0.00 | 0.00 | 0.00 | 45 | 973.1 |
| 20260902151203 | 22 | 345 | 8.0 | 14.5 | 0.00 | 0.00 | 0.00 | 45 | 973.5 |
| 20260902150715 | 22 | 107 | 1.6 | 14.5 | 0.00 | 0.00 | 0.00 | 45 | 973.3 |
| 20260902150238 | 23 | 219 | 1.6 | 20.9 | 0.00 | 0.00 | 0.00 | 45 | 973.2 |
| 20260902145805 | 23 | 334 | 11.3 | 14.5 | 0.00 | 0.00 | 0.00 | 45 | 973.2 |
| 20260902145345 | 23 | 228 | 6.4 | 17.7 | 0.00 | 0.00 | 0.00 | 45 | 973.3 |
| 20260902144928 | 23 | 313 | 6.4 | 22.5 | 0.00 | 0.00 | 0.00 | 45 | 973.4 |
| 20260902144443 | 23 | 276 | 6.4 | 14.5 | 0.00 | 0.00 | 0.00 | 45 | 973.4 |
| 20260902144018 | 23 | 276 | 3.2 | 14.5 | 0.00 | 0.00 | 0.00 | 47 | 973.5 |
| 20260902143608 | 22 | 357 | 6.4 | 17.7 | 0.00 | 0.00 | 0.00 | 50 | 973.2 |
| 20260902143138 | 22 | 135 | 6.4 | 8.0 | 0.00 | 0.00 | 0.00 | 50 | 973.3 |
| 20260902142723 | 23 | 135 | 1.6 | 17.7 | 0.00 | 0.00 | 0.00 | 50 | 973.2 |
| 20260902142245 | 22 | 305 | 8.0 | 17.7 | 0.00 | 0.00 | 0.00 | 50 | 973.5 |
| 20260902141827 | 21 | 41 | 9.7 | 17.7 | 0.00 | 0.00 | 0.00 | 50 | 973.3 |
| 20260902141413 | 21 | 332 | 9.7 | 17.7 | 0.00 | 0.00 | 0.00 | 50 | 973.6 |
| 20260902140934 | 21 | 332 | 8.0 | 17.7 | 0.00 | 0.00 | 0.00 | 50 | 973.6 |
| 20260902140508 | 22 | 234 | 9.7 | 20.9 | 0.00 | 0.00 | 0.00 | 50 | 973.6 |
| 20260902140043 | 22 | 300 | 9.7 | 20.9 | 0.00 | 0.00 | 0.00 | 50 | 973.5 |
| 20260902135615 | 21 | 10 | 9.7 | 17.7 | 0.00 | 0.00 | 0.00 | 50 | 973.7 |
| 20260902135133 | 22 | 2 | 11.3 | 17.7 | 0.00 | 0.00 | 0.00 | 50 | 973.6 |
| 20260902134708 | 22 | 2 | 1.6 | 17.7 | 0.00 | 0.00 | 0.00 | 50 | 973.5 |
| 20260902134243 | 22 | 317 | 1.6 | 17.7 | 0.00 | 0.00 | 0.00 | 50 | 973.4 |
| 20260902133815 | 22 | 230 | 12.9 | 8.0 | 0.00 | 0.00 | 0.00 | 50 | 973.7 |
| 20260902133403 | 22 | 230 | 3.2 | 8.0 | 0.00 | 0.00 | 0.00 | 50 | 973.7 |
| 20260902132933 | 22 | 165 | 8.0 | 8.0 | 0.00 | 0.00 | 0.00 | 50 | 973.6 |
| 20260902132453 | 22 | 118 | 6.4 | 11.3 | 0.00 | 0.00 | 0.00 | 48 | 973.7 |
| 20260902132018 | 22 | 312 | 0.0 | 17.7 | 0.00 | 0.00 | 0.00 | 48 | 973.9 |
| 20260902131543 | 22 | 290 | 3.2 | 17.7 | 0.00 | 0.00 | 0.00 | 48 | 973.9 |
| 20260902131138 | 22 | 290 | 9.7 | 17.7 | 0.00 | 0.00 | 0.00 | 48 | 973.8 |
| 20260902130703 | 22 | 316 | 9.7 | 11.3 | 0.00 | 0.00 | 0.00 | 48 | 973.9 |
| 20260902130218 | 22 | 232 | 9.7 | 17.7 | 0.00 | 0.00 | 0.00 | 48 | 973.8 |
| 20260902125803 | 22 | 318 | 6.4 | 17.7 | 0.00 | 0.00 | 0.00 | 46 | 973.9 |
| 20260902125333 | 22 | 318 | 6.4 | 14.5 | 0.00 | 0.00 | 0.00 | 46 | 973.8 |
| 20260902124913 | 22 | 318 | 6.4 | 14.5 | 0.00 | 0.00 | 0.00 | 46 | 973.9 |
| 20260902124425 | 22 | 282 | 9.7 | 8.0 | 0.00 | 0.00 | 0.00 | 46 | 973.8 |
| 20260902123953 | 22 | 282 | 9.7 | 17.7 | 0.00 | 0.00 | 0.00 | 48 | 973.9 |
| 20260902123528 | 21 | 133 | 9.7 | 8.0 | 0.00 | 0.00 | 0.00 | 48 | 973.8 |
| 20260902123103 | 21 | 133 | 14.5 | 8.0 | 0.00 | 0.00 | 0.00 | 48 | 973.8 |
| 20260902122623 | 21 | 155 | 8.0 | 8.0 | 0.00 | 0.00 | 0.00 | 50 | 973.9 |
| 20260902122143 | 21 | 328 | 11.3 | 8.0 | 0.00 | 0.00 | 0.00 | 47 | 974.2 |